Back to Top

Language: 

My Weather Underground Personal Weather Station Historical Data with Graphs...

Delerius Weather Station Historical Data
Daily Summary for November 1, 2017 Units:  English    Metric   Both
« Previous Day
Next Day »
Daily Weekly Monthly Yearly Custom
  High: Low: Average:
Temperature: 54.9 °F 47.5 °F 51.2 °F
Dew Point: 49.1 °F 44.0 °F 47.2 °F
Humidity: 93 % 79 % 86 %
Wind Speed: 11.0 mph 0.0 mph 3.3 mph
Wind Gust: 15.0 mph - -
Wind:- - WSW
Pressure: 30.10 in 29.93 in -
Precipitation: 0.00 in    
Historical Graphs
 
 
Tabular Data for November 1, 2017
Time Temperature Dew Point Pressure Wind Wind Speed Wind Gust Humidity Rainfall Rate (Hourly) solar Conditions
00:03 50.0 °F 47.5 °F 30.10 in Calm     91 % 0.00 in 0 W/m2
00:08 50.0 °F 47.5 °F 30.10 in Calm     91 % 0.00 in 0 W/m2
00:13 50.2 °F 47.7 °F 30.10 in Calm     91 % 0.00 in 0 W/m2
00:18 50.2 °F 47.7 °F 30.10 in Calm     91 % 0.00 in 0 W/m2
00:23 50.2 °F 47.9 °F 30.10 in Calm     92 % 0.00 in 0 W/m2
00:28 50.2 °F 47.7 °F 30.10 in SE 2.0 mph 5.0 mph 91 % 0.00 in 0 W/m2
00:33 50.2 °F 47.7 °F 30.10 in ENE 2.0 mph 5.0 mph 91 % 0.00 in 0 W/m2
00:38 50.2 °F 47.9 °F 30.10 in Calm   2.0 mph 92 % 0.00 in 0 W/m2
00:43 50.2 °F 47.9 °F 30.10 in Calm     92 % 0.00 in 0 W/m2
00:48 50.0 °F 47.8 °F 30.10 in ESE 1.0 mph 3.0 mph 92 % 0.00 in 0 W/m2
00:53 50.0 °F 47.8 °F 30.10 in ESE 1.0 mph 4.0 mph 92 % 0.00 in 0 W/m2
00:58 50.0 °F 47.8 °F 30.09 in NE 2.0 mph 4.0 mph 92 % 0.00 in 0 W/m2
01:03 50.0 °F 47.8 °F 30.09 in NNE 4.0 mph 5.0 mph 92 % 0.00 in 0 W/m2
01:08 50.2 °F 47.9 °F 30.10 in Calm     92 % 0.00 in 0 W/m2
01:13 50.2 °F 47.9 °F 30.09 in Calm     92 % 0.00 in 0 W/m2
01:18 50.2 °F 47.9 °F 30.09 in Calm     92 % 0.00 in 0 W/m2
01:23 50.0 °F 47.8 °F 30.09 in NNE 1.0 mph 2.0 mph 92 % 0.00 in 0 W/m2
01:28 49.8 °F 47.6 °F 30.09 in Calm     92 % 0.00 in 0 W/m2
01:33 49.8 °F 47.6 °F 30.09 in Calm     92 % 0.00 in 0 W/m2
01:38 49.8 °F 47.6 °F 30.09 in Calm   2.0 mph 92 % 0.00 in 0 W/m2
01:43 49.6 °F 47.4 °F 30.08 in Calm     92 % 0.00 in 0 W/m2
01:48 49.6 °F 47.4 °F 30.08 in Calm     92 % 0.00 in 0 W/m2
01:53 49.6 °F 47.4 °F 30.08 in Calm     92 % 0.00 in 0 W/m2
01:58 49.6 °F 47.4 °F 30.08 in Calm   1.0 mph 92 % 0.00 in 0 W/m2
02:03 49.6 °F 47.4 °F 30.08 in NNE 2.0 mph 4.0 mph 92 % 0.00 in 0 W/m2
02:08 49.6 °F 47.7 °F 30.08 in Calm     93 % 0.00 in 0 W/m2
02:14 49.5 °F 47.5 °F 30.08 in Calm     93 % 0.00 in 0 W/m2
02:19 49.5 °F 47.5 °F 30.08 in Calm     93 % 0.00 in 0 W/m2
02:24 49.6 °F 47.7 °F 30.08 in Calm     93 % 0.00 in 0 W/m2
02:29 49.5 °F 47.5 °F 30.08 in Calm     93 % 0.00 in 0 W/m2
02:34 49.6 °F 47.7 °F 30.07 in Calm     93 % 0.00 in 0 W/m2
02:39 49.6 °F 47.7 °F 30.08 in Calm     93 % 0.00 in 0 W/m2
02:44 49.6 °F 47.7 °F 30.07 in ESE 1.0 mph 4.0 mph 93 % 0.00 in 0 W/m2
02:49 49.5 °F 47.5 °F 30.07 in Calm     93 % 0.00 in 0 W/m2
02:54 49.5 °F 47.5 °F 30.07 in SE 1.0 mph 4.0 mph 93 % 0.00 in 0 W/m2
02:59 49.5 °F 47.5 °F 30.07 in Calm   2.0 mph 93 % 0.00 in 0 W/m2
03:04 49.5 °F 47.5 °F 30.07 in SE 2.0 mph 5.0 mph 93 % 0.00 in 0 W/m2
03:09 49.6 °F 47.7 °F 30.07 in Calm   2.0 mph 93 % 0.00 in 0 W/m2
03:14 49.6 °F 47.7 °F 30.07 in Calm     93 % 0.00 in 0 W/m2
03:21 49.6 °F 47.7 °F 30.07 in Calm     93 % 0.00 in 0 W/m2
03:23 49.6 °F 47.7 °F 30.07 in Calm     93 % 0.00 in 0 W/m2
03:27 49.8 °F 47.9 °F 30.07 in ENE 1.0 mph 2.0 mph 93 % 0.00 in 0 W/m2
03:28 49.8 °F 47.9 °F 30.07 in ENE 1.0 mph 2.0 mph 93 % 0.00 in 0 W/m2
03:32 49.8 °F 47.9 °F 30.06 in Calm     93 % 0.00 in 0 W/m2
03:37 49.8 °F 47.9 °F 30.06 in North 1.0 mph 4.0 mph 93 % 0.00 in 0 W/m2
03:42 49.8 °F 47.6 °F 30.06 in Calm   2.0 mph 92 % 0.00 in 0 W/m2
03:47 49.8 °F 47.6 °F 30.06 in Calm     92 % 0.00 in 0 W/m2
03:53 49.8 °F 47.6 °F 30.06 in Calm     92 % 0.00 in 0 W/m2
03:58 49.8 °F 47.6 °F 30.06 in Calm   2.0 mph 92 % 0.00 in 0 W/m2
04:03 49.8 °F 47.6 °F 30.06 in Calm     92 % 0.00 in 0 W/m2
04:08 49.8 °F 47.9 °F 30.06 in Calm     93 % 0.00 in 0 W/m2
04:13 49.6 °F 47.7 °F 30.06 in Calm     93 % 0.00 in 0 W/m2
04:18 49.6 °F 47.7 °F 30.05 in Calm     93 % 0.00 in 0 W/m2
04:23 49.6 °F 47.7 °F 30.05 in Calm     93 % 0.00 in 0 W/m2
04:28 49.5 °F 47.5 °F 30.05 in Calm   1.0 mph 93 % 0.00 in 0 W/m2
04:33 49.5 °F 47.5 °F 30.05 in Calm   1.0 mph 93 % 0.00 in 0 W/m2
04:38 49.5 °F 47.5 °F 30.05 in Calm   1.0 mph 93 % 0.00 in 0 W/m2
04:43 49.3 °F 47.3 °F 30.05 in Calm   3.0 mph 93 % 0.00 in 0 W/m2
04:48 49.3 °F 47.3 °F 30.05 in Calm     93 % 0.00 in 0 W/m2
04:53 49.3 °F 47.3 °F 30.05 in Calm     93 % 0.00 in 0 W/m2
04:58 49.1 °F 46.9 °F 30.05 in WNW 1.0 mph 5.0 mph 92 % 0.00 in 0 W/m2
05:03 48.9 °F 46.7 °F 30.05 in Calm     92 % 0.00 in 0 W/m2
05:08 48.7 °F 46.2 °F 30.05 in Calm   1.0 mph 91 % 0.00 in 0 W/m2
05:13 48.4 °F 45.3 °F 30.05 in NNW 3.0 mph 6.0 mph 89 % 0.00 in 0 W/m2
05:18 48.6 °F 44.9 °F 30.05 in NW 5.0 mph 9.0 mph 87 % 0.00 in 0 W/m2
05:23 49.1 °F 44.2 °F 30.05 in WNW 4.0 mph 8.0 mph 83 % 0.00 in 0 W/m2
05:28 49.6 °F 44.0 °F 30.04 in WNW 5.0 mph 6.0 mph 81 % 0.00 in 0 W/m2
05:33 50.2 °F 44.2 °F 30.04 in WNW 2.0 mph 5.0 mph 80 % 0.00 in 0 W/m2
05:38 50.4 °F 44.1 °F 30.04 in WNW 1.0 mph 4.0 mph 79 % 0.00 in 0 W/m2
05:43 50.5 °F 45.2 °F 30.04 in Calm     82 % 0.00 in 0 W/m2
05:48 50.5 °F 45.2 °F 30.04 in Calm     82 % 0.00 in 0 W/m2
05:53 50.4 °F 45.4 °F 30.04 in Calm   2.0 mph 83 % 0.00 in 0 W/m2
05:58 50.2 °F 45.2 °F 30.04 in Calm     83 % 0.00 in 0 W/m2
06:03 50.2 °F 45.5 °F 30.04 in Calm     84 % 0.00 in 0 W/m2
06:08 49.8 °F 45.2 °F 30.04 in Calm     84 % 0.00 in 0 W/m2
06:13 49.6 °F 45.3 °F 30.04 in Calm   1.0 mph 85 % 0.00 in 0 W/m2
06:18 49.5 °F 45.1 °F 30.04 in Calm     85 % 0.00 in 0 W/m2
06:23 49.5 °F 45.4 °F 30.05 in Calm     86 % 0.00 in 0 W/m2
06:28 49.3 °F 45.3 °F 30.05 in Calm     86 % 0.00 in 0 W/m2
06:33 49.1 °F 45.1 °F 30.05 in Calm     86 % 0.00 in 0 W/m2
06:38 48.9 °F 44.9 °F 30.05 in Calm     86 % 0.00 in 0 W/m2
06:43 48.9 °F 45.2 °F 30.05 in Calm   1.0 mph 87 % 0.00 in 0 W/m2
06:48 48.7 °F 45.3 °F 30.05 in WNW 1.0 mph 6.0 mph 88 % 0.00 in 0 W/m2
06:53 48.6 °F 45.2 °F 30.05 in WNW 3.0 mph 6.0 mph 88 % 0.00 in 0 W/m2
06:58 48.6 °F 44.9 °F 30.05 in West 5.0 mph 8.0 mph 87 % 0.00 in 0 W/m2
07:03 48.9 °F 44.9 °F 30.05 in WNW 7.0 mph 12.0 mph 86 % 0.00 in 5 W/m2
07:08 49.6 °F 45.0 °F 30.05 in WNW 7.0 mph 12.0 mph 84 % 0.00 in 5 W/m2
07:13 50.5 °F 45.6 °F 30.06 in WNW 9.0 mph 13.0 mph 83 % 0.00 in 9 W/m2
07:18 50.9 °F 45.6 °F 30.06 in WNW 10.0 mph 13.0 mph 82 % 0.00 in 12 W/m2
07:23 51.3 °F 46.0 °F 30.06 in WNW 8.0 mph 12.0 mph 82 % 0.00 in 14 W/m2
07:29 51.3 °F 46.0 °F 30.07 in WNW 7.0 mph 11.0 mph 82 % 0.00 in 18 W/m2
07:34 51.3 °F 46.3 °F 30.07 in WNW 7.0 mph 11.0 mph 83 % 0.00 in 23 W/m2
07:39 51.3 °F 46.3 °F 30.06 in West 7.0 mph 10.0 mph 83 % 0.00 in 28 W/m2
07:44 51.1 °F 46.4 °F 30.06 in WNW 8.0 mph 11.0 mph 84 % 0.00 in 32 W/m2
07:49 51.1 °F 46.4 °F 30.06 in West 9.0 mph 12.0 mph 84 % 0.00 in 35 W/m2
07:54 50.9 °F 46.2 °F 30.06 in West 9.0 mph 12.0 mph 84 % 0.00 in 40 W/m2
07:59 50.9 °F 46.2 °F 30.06 in West 7.0 mph 10.0 mph 84 % 0.00 in 53 W/m2
08:04 50.7 °F 46.4 °F 30.06 in West 6.0 mph 11.0 mph 85 % 0.00 in 67 W/m2
08:09 50.9 °F 46.6 °F 30.06 in WNW 6.0 mph 9.0 mph 85 % 0.00 in 67 W/m2
08:14 50.9 °F 46.6 °F 30.06 in West 6.0 mph 8.0 mph 85 % 0.00 in 79 W/m2
08:19 51.1 °F 46.7 °F 30.06 in West 6.0 mph 9.0 mph 85 % 0.00 in 86 W/m2
08:24 51.1 °F 46.7 °F 30.06 in West 4.0 mph 8.0 mph 85 % 0.00 in 97 W/m2
08:29 51.3 °F 46.9 °F 30.06 in West 2.0 mph 5.0 mph 85 % 0.00 in 149 W/m2
08:34 51.3 °F 46.9 °F 30.06 in West 2.0 mph 5.0 mph 85 % 0.00 in 174 W/m2
08:39 51.6 °F 47.3 °F 30.06 in West 3.0 mph 6.0 mph 85 % 0.00 in 179 W/m2
08:44 52.0 °F 47.6 °F 30.06 in West 5.0 mph 8.0 mph 85 % 0.00 in 197 W/m2
08:49 52.3 °F 48.0 °F 30.06 in West 6.0 mph 9.0 mph 85 % 0.00 in 141 W/m2
08:54 52.5 °F 47.8 °F 30.06 in WNW 5.0 mph 10.0 mph 84 % 0.00 in 118 W/m2
08:59 52.5 °F 47.5 °F 30.06 in West 6.0 mph 8.0 mph 83 % 0.00 in 107 W/m2
09:04 52.5 °F 47.5 °F 30.06 in West 7.0 mph 12.0 mph 83 % 0.00 in 100 W/m2
09:09 52.7 °F 47.7 °F 30.06 in West 9.0 mph 14.0 mph 83 % 0.00 in 104 W/m2
09:14 52.7 °F 47.7 °F 30.06 in West 7.0 mph 11.0 mph 83 % 0.00 in 105 W/m2
09:19 52.7 °F 47.7 °F 30.06 in West 6.0 mph 11.0 mph 83 % 0.00 in 102 W/m2
09:24 52.9 °F 47.9 °F 30.06 in West 7.0 mph 10.0 mph 83 % 0.00 in 95 W/m2
09:29 52.9 °F 47.9 °F 30.06 in West 5.0 mph 9.0 mph 83 % 0.00 in 88 W/m2
09:34 52.9 °F 47.9 °F 30.06 in West 6.0 mph 8.0 mph 83 % 0.00 in 79 W/m2
09:39 52.9 °F 47.9 °F 30.06 in West 6.0 mph 8.0 mph 83 % 0.00 in 81 W/m2
09:44 52.9 °F 47.9 °F 30.06 in WNW 4.0 mph 8.0 mph 83 % 0.00 in 81 W/m2
09:49 52.9 °F 47.9 °F 30.05 in West 5.0 mph 8.0 mph 83 % 0.00 in 86 W/m2
09:54 53.1 °F 48.0 °F 30.05 in West 4.0 mph 10.0 mph 83 % 0.00 in 98 W/m2
09:59 53.1 °F 47.7 °F 30.05 in West 6.0 mph 10.0 mph 82 % 0.00 in 105 W/m2
10:04 53.2 °F 47.9 °F 30.05 in West 5.0 mph 10.0 mph 82 % 0.00 in 114 W/m2
10:09 53.4 °F 48.1 °F 30.05 in WSW 7.0 mph 11.0 mph 82 % 0.00 in 123 W/m2
10:14 53.4 °F 47.7 °F 30.05 in WSW 7.0 mph 11.0 mph 81 % 0.00 in 127 W/m2
10:19 53.8 °F 48.1 °F 30.05 in West 6.0 mph 10.0 mph 81 % 0.00 in 118 W/m2
10:24 53.8 °F 48.1 °F 30.05 in WSW 8.0 mph 11.0 mph 81 % 0.00 in 111 W/m2
10:29 54.0 °F 47.9 °F 30.04 in WSW 7.0 mph 12.0 mph 80 % 0.00 in 107 W/m2
10:34 54.0 °F 47.9 °F 30.04 in West 6.0 mph 9.0 mph 80 % 0.00 in 104 W/m2
10:39 54.0 °F 47.9 °F 30.05 in WSW 6.0 mph 12.0 mph 80 % 0.00 in 102 W/m2
10:45 54.0 °F 47.9 °F 30.05 in WSW 7.0 mph 10.0 mph 80 % 0.00 in 107 W/m2
10:50 54.1 °F 48.1 °F 30.05 in WSW 7.0 mph 10.0 mph 80 % 0.00 in 111 W/m2
10:55 54.1 °F 48.1 °F 30.05 in WSW 9.0 mph 13.0 mph 80 % 0.00 in 120 W/m2
11:00 54.1 °F 48.1 °F 30.04 in WSW 7.0 mph 14.0 mph 80 % 0.00 in 123 W/m2
11:05 54.3 °F 47.9 °F 30.04 in WSW 8.0 mph 12.0 mph 79 % 0.00 in 121 W/m2
11:10 54.3 °F 47.9 °F 30.04 in WSW 8.0 mph 12.0 mph 79 % 0.00 in 125 W/m2
11:15 54.3 °F 47.9 °F 30.04 in WSW 8.0 mph 12.0 mph 79 % 0.00 in 128 W/m2
11:20 54.5 °F 48.5 °F 30.04 in West 6.0 mph 10.0 mph 80 % 0.00 in 132 W/m2
11:25 54.5 °F 48.1 °F 30.04 in WSW 5.0 mph 9.0 mph 79 % 0.00 in 137 W/m2
11:30 54.5 °F 48.5 °F 30.04 in West 7.0 mph 13.0 mph 80 % 0.00 in 149 W/m2
11:35 54.7 °F 48.6 °F 30.04 in West 5.0 mph 8.0 mph 80 % 0.00 in 167 W/m2
11:40 54.7 °F 49.0 °F 30.03 in WNW 5.0 mph 8.0 mph 81 % 0.00 in 179 W/m2
11:45 54.9 °F 49.1 °F 30.03 in West 7.0 mph 13.0 mph 81 % 0.00 in 183 W/m2
11:50 54.9 °F 48.8 °F 30.03 in West 8.0 mph 12.0 mph 80 % 0.00 in 176 W/m2
11:55 54.7 °F 48.6 °F 30.03 in West 9.0 mph 14.0 mph 80 % 0.00 in 169 W/m2
12:00 54.7 °F 48.6 °F 30.03 in West 8.0 mph 12.0 mph 80 % 0.00 in 162 W/m2
12:05 54.9 °F 48.8 °F 30.02 in West 7.0 mph 10.0 mph 80 % 0.00 in 156 W/m2
12:10 54.9 °F 48.8 °F 30.02 in WNW 10.0 mph 14.0 mph 80 % 0.00 in 171 W/m2
12:15 54.9 °F 48.8 °F 30.02 in WNW 10.0 mph 15.0 mph 80 % 0.00 in 181 W/m2
12:20 54.9 °F 48.8 °F 30.02 in WNW 10.0 mph 14.0 mph 80 % 0.00 in 169 W/m2
12:25 54.9 °F 48.8 °F 30.01 in West 9.0 mph 12.0 mph 80 % 0.00 in 141 W/m2
12:30 54.9 °F 48.8 °F 30.01 in WNW 8.0 mph 13.0 mph 80 % 0.00 in 111 W/m2
12:35 54.9 °F 48.8 °F 30.01 in WNW 9.0 mph 13.0 mph 80 % 0.00 in 97 W/m2
12:40 54.9 °F 48.8 °F 30.01 in West 8.0 mph 10.0 mph 80 % 0.00 in 95 W/m2
12:45 54.7 °F 48.6 °F 30.01 in WNW 9.0 mph 13.0 mph 80 % 0.00 in 104 W/m2
12:50 54.9 °F 48.8 °F 30.01 in WNW 9.0 mph 13.0 mph 80 % 0.00 in 118 W/m2
12:55 54.9 °F 48.8 °F 30.01 in WNW 9.0 mph 13.0 mph 80 % 0.00 in 132 W/m2
13:00 54.9 °F 48.8 °F 30.00 in WNW 11.0 mph 15.0 mph 80 % 0.00 in 111 W/m2
13:05 54.9 °F 48.8 °F 30.00 in West 9.0 mph 15.0 mph 80 % 0.00 in 100 W/m2
13:10 54.9 °F 48.8 °F 30.00 in West 9.0 mph 13.0 mph 80 % 0.00 in 100 W/m2
13:15 54.7 °F 48.6 °F 30.00 in West 8.0 mph 13.0 mph 80 % 0.00 in 98 W/m2
13:20 54.7 °F 48.6 °F 30.00 in West 10.0 mph 14.0 mph 80 % 0.00 in 100 W/m2
13:25 54.7 °F 49.0 °F 29.99 in West 8.0 mph 14.0 mph 81 % 0.00 in 98 W/m2
13:30 54.7 °F 49.0 °F 29.99 in West 8.0 mph 14.0 mph 81 % 0.00 in 93 W/m2
13:36 54.7 °F 49.0 °F 29.99 in West 7.0 mph 12.0 mph 81 % 0.00 in 90 W/m2
13:41 54.5 °F 48.8 °F 29.99 in WNW 7.0 mph 12.0 mph 81 % 0.00 in 91 W/m2
13:46 54.5 °F 48.8 °F 29.98 in West 7.0 mph 11.0 mph 81 % 0.00 in 97 W/m2
13:51 54.5 °F 48.8 °F 29.98 in West 4.0 mph 7.0 mph 81 % 0.00 in 90 W/m2
13:56 54.5 °F 48.8 °F 29.98 in West 5.0 mph 9.0 mph 81 % 0.00 in 81 W/m2
14:01 54.5 °F 48.8 °F 29.98 in West 4.0 mph 8.0 mph 81 % 0.00 in 76 W/m2
14:06 54.5 °F 48.8 °F 29.99 in Calm   2.0 mph 81 % 0.00 in 69 W/m2
14:11 54.5 °F 48.8 °F 29.99 in West 1.0 mph 2.0 mph 81 % 0.00 in 56 W/m2
14:16 54.5 °F 48.8 °F 29.99 in Calm     81 % 0.00 in 58 W/m2
14:21 54.5 °F 48.8 °F 29.99 in Calm   1.0 mph 81 % 0.00 in 51 W/m2
14:26 54.5 °F 48.8 °F 29.98 in Calm     81 % 0.00 in 47 W/m2
14:31 54.5 °F 48.8 °F 29.98 in Calm   2.0 mph 81 % 0.00 in 49 W/m2
14:36 54.3 °F 48.6 °F 29.98 in Calm   1.0 mph 81 % 0.00 in 56 W/m2
14:41 54.3 °F 48.6 °F 29.99 in West 1.0 mph 2.0 mph 81 % 0.00 in 58 W/m2
14:46 54.3 °F 48.9 °F 29.99 in Calm   2.0 mph 82 % 0.00 in 58 W/m2
14:51 54.3 °F 48.9 °F 29.99 in NW 2.0 mph 6.0 mph 82 % 0.00 in 63 W/m2
14:56 54.3 °F 48.6 °F 29.99 in West 2.0 mph 7.0 mph 81 % 0.00 in 67 W/m2
15:01 54.3 °F 48.6 °F 29.99 in West 3.0 mph 6.0 mph 81 % 0.00 in 65 W/m2
15:06 54.3 °F 48.6 °F 29.98 in WSW 3.0 mph 6.0 mph 81 % 0.00 in 56 W/m2
15:11 54.3 °F 48.6 °F 29.98 in WSW 5.0 mph 8.0 mph 81 % 0.00 in 54 W/m2
15:16 54.3 °F 48.6 °F 29.98 in WSW 6.0 mph 9.0 mph 81 % 0.00 in 65 W/m2
15:21 54.3 °F 48.6 °F 29.98 in West 6.0 mph 10.0 mph 81 % 0.00 in 79 W/m2
15:26 54.5 °F 48.8 °F 29.98 in WSW 7.0 mph 9.0 mph 81 % 0.00 in 77 W/m2
15:31 54.5 °F 48.8 °F 29.97 in WSW 6.0 mph 9.0 mph 81 % 0.00 in 69 W/m2
15:36 54.5 °F 48.8 °F 29.98 in West 5.0 mph 9.0 mph 81 % 0.00 in 63 W/m2
15:41 54.5 °F 48.8 °F 29.98 in West 4.0 mph 8.0 mph 81 % 0.00 in 60 W/m2
15:46 54.5 °F 48.8 °F 29.98 in West 5.0 mph 8.0 mph 81 % 0.00 in 53 W/m2
15:51 54.3 °F 48.6 °F 29.97 in West 4.0 mph 6.0 mph 81 % 0.00 in 51 W/m2
15:56 54.5 °F 48.8 °F 29.97 in West 1.0 mph 5.0 mph 81 % 0.00 in 44 W/m2
16:01 54.3 °F 48.6 °F 29.97 in West 2.0 mph 5.0 mph 81 % 0.00 in 40 W/m2
16:06 54.3 °F 48.6 °F 29.97 in West 4.0 mph 7.0 mph 81 % 0.00 in 33 W/m2
16:11 54.3 °F 48.6 °F 29.97 in West 1.0 mph 4.0 mph 81 % 0.00 in 30 W/m2
16:16 54.1 °F 48.4 °F 29.97 in Calm   1.0 mph 81 % 0.00 in 25 W/m2
16:21 54.0 °F 48.6 °F 29.98 in Calm     82 % 0.00 in 14 W/m2
16:26 53.8 °F 48.4 °F 29.98 in Calm     82 % 0.00 in 11 W/m2
16:31 53.8 °F 48.4 °F 29.97 in Calm   1.0 mph 82 % 0.00 in 9 W/m2
16:36 53.4 °F 48.4 °F 29.97 in Calm   4.0 mph 83 % 0.00 in 7 W/m2
16:41 53.4 °F 48.4 °F 29.97 in WSW 4.0 mph 6.0 mph 83 % 0.00 in 5 W/m2
16:46 53.2 °F 48.2 °F 29.97 in West 1.0 mph 4.0 mph 83 % 0.00 in 0 W/m2
16:51 53.2 °F 48.2 °F 29.97 in West 4.0 mph 7.0 mph 83 % 0.00 in 0 W/m2
16:56 53.1 °F 48.0 °F 29.97 in West 4.0 mph 7.0 mph 83 % 0.00 in 0 W/m2
17:01 53.1 °F 48.0 °F 29.97 in West 3.0 mph 7.0 mph 83 % 0.00 in 0 W/m2
17:06 52.9 °F 47.9 °F 29.97 in West 3.0 mph 6.0 mph 83 % 0.00 in 0 W/m2
17:11 52.9 °F 47.9 °F 29.97 in West 3.0 mph 6.0 mph 83 % 0.00 in 0 W/m2
17:17 52.7 °F 48.0 °F 29.96 in WSW 4.0 mph 6.0 mph 84 % 0.00 in 0 W/m2
17:22 52.5 °F 47.8 °F 29.96 in WSW 8.0 mph 14.0 mph 84 % 0.00 in 0 W/m2
17:27 52.5 °F 47.5 °F 29.96 in West 5.0 mph 9.0 mph 83 % 0.00 in 0 W/m2
17:32 52.5 °F 47.8 °F 29.96 in West 3.0 mph 7.0 mph 84 % 0.00 in 0 W/m2
17:37 52.5 °F 47.8 °F 29.96 in West 5.0 mph 9.0 mph 84 % 0.00 in 0 W/m2
17:42 52.5 °F 47.8 °F 29.96 in West 5.0 mph 8.0 mph 84 % 0.00 in 0 W/m2
17:47 52.3 °F 47.6 °F 29.96 in WSW 3.0 mph 7.0 mph 84 % 0.00 in 0 W/m2
17:52 52.3 °F 47.6 °F 29.97 in West 1.0 mph 4.0 mph 84 % 0.00 in 0 W/m2
17:57 52.2 °F 47.5 °F 29.97 in Calm     84 % 0.00 in 0 W/m2
18:02 52.0 °F 47.3 °F 29.97 in Calm     84 % 0.00 in 0 W/m2
18:07 51.6 °F 46.9 °F 29.97 in Calm   2.0 mph 84 % 0.00 in 0 W/m2
18:12 51.4 °F 47.1 °F 29.97 in West 1.0 mph 2.0 mph 85 % 0.00 in 0 W/m2
18:17 51.3 °F 46.9 °F 29.97 in West 1.0 mph 5.0 mph 85 % 0.00 in 0 W/m2
18:22 51.1 °F 46.7 °F 29.97 in Calm     85 % 0.00 in 0 W/m2
18:27 50.7 °F 46.7 °F 29.97 in Calm     86 % 0.00 in 0 W/m2
18:32 50.5 °F 46.5 °F 29.97 in Calm     86 % 0.00 in 0 W/m2
18:37 50.4 °F 46.3 °F 29.97 in West 2.0 mph 4.0 mph 86 % 0.00 in 0 W/m2
18:42 50.2 °F 46.5 °F 29.96 in West 5.0 mph 7.0 mph 87 % 0.00 in 0 W/m2
18:47 49.8 °F 46.1 °F 29.96 in WNW 5.0 mph 6.0 mph 87 % 0.00 in 0 W/m2
18:52 49.8 °F 46.4 °F 29.96 in West 4.0 mph 7.0 mph 88 % 0.00 in 0 W/m2
18:57 49.6 °F 46.2 °F 29.96 in NW 2.0 mph 5.0 mph 88 % 0.00 in 0 W/m2
19:02 49.5 °F 46.1 °F 29.97 in Calm   2.0 mph 88 % 0.00 in 0 W/m2
19:07 49.5 °F 46.1 °F 29.96 in WNW 2.0 mph 6.0 mph 88 % 0.00 in 0 W/m2
19:12 49.3 °F 45.9 °F 29.96 in WNW 1.0 mph 2.0 mph 88 % 0.00 in 0 W/m2
19:17 49.1 °F 45.7 °F 29.96 in Calm     88 % 0.00 in 0 W/m2
19:23 48.9 °F 45.8 °F 29.96 in NW 1.0 mph 1.0 mph 89 % 0.00 in 0 W/m2
19:28 48.7 °F 45.6 °F 29.96 in Calm     89 % 0.00 in 0 W/m2
19:33 48.6 °F 45.5 °F 29.96 in Calm     89 % 0.00 in 0 W/m2
19:38 48.4 °F 45.3 °F 29.96 in Calm     89 % 0.00 in 0 W/m2
19:43 48.0 °F 44.9 °F 29.96 in Calm     89 % 0.00 in 0 W/m2
19:48 47.8 °F 45.0 °F 29.96 in Calm   2.0 mph 90 % 0.00 in 0 W/m2
19:53 47.8 °F 45.0 °F 29.96 in Calm     90 % 0.00 in 0 W/m2
19:58 47.8 °F 45.3 °F 29.96 in Calm     91 % 0.00 in 0 W/m2
20:03 48.0 °F 45.5 °F 29.96 in Calm   1.0 mph 91 % 0.00 in 0 W/m2
20:08 48.0 °F 45.5 °F 29.96 in Calm     91 % 0.00 in 0 W/m2
20:13 48.0 °F 45.5 °F 29.96 in WNW 4.0 mph 5.0 mph 91 % 0.00 in 0 W/m2
20:18 48.4 °F 45.9 °F 29.95 in West 4.0 mph 6.0 mph 91 % 0.00 in 0 W/m2
20:23 48.4 °F 45.9 °F 29.95 in WNW 3.0 mph 6.0 mph 91 % 0.00 in 0 W/m2
20:28 48.2 °F 45.4 °F 29.96 in WNW 3.0 mph 6.0 mph 90 % 0.00 in 0 W/m2
20:33 48.0 °F 45.2 °F 29.96 in WNW 2.0 mph 5.0 mph 90 % 0.00 in 0 W/m2
20:38 47.8 °F 45.0 °F 29.96 in WNW 1.0 mph 3.0 mph 90 % 0.00 in 0 W/m2
20:43 47.7 °F 44.9 °F 29.95 in Calm   2.0 mph 90 % 0.00 in 0 W/m2
20:48 47.5 °F 44.7 °F 29.95 in West 5.0 mph 8.0 mph 90 % 0.00 in 0 W/m2
20:53 47.7 °F 45.2 °F 29.95 in WNW 6.0 mph 8.0 mph 91 % 0.00 in 0 W/m2
20:58 47.8 °F 45.6 °F 29.95 in West 5.0 mph 9.0 mph 92 % 0.00 in 0 W/m2
21:03 47.8 °F 45.6 °F 29.95 in WNW 4.0 mph 7.0 mph 92 % 0.00 in 0 W/m2
21:08 47.8 °F 45.6 °F 29.95 in WNW 1.0 mph 4.0 mph 92 % 0.00 in 0 W/m2
21:13 47.8 °F 45.3 °F 29.95 in WNW 3.0 mph 5.0 mph 91 % 0.00 in 0 W/m2
21:18 47.7 °F 45.5 °F 29.95 in WNW 6.0 mph 9.0 mph 92 % 0.00 in 0 W/m2
21:23 48.0 °F 45.8 °F 29.94 in WNW 7.0 mph 10.0 mph 92 % 0.00 in 0 W/m2
21:28 48.2 °F 46.0 °F 29.94 in WNW 9.0 mph 13.0 mph 92 % 0.00 in 0 W/m2
21:33 48.6 °F 46.3 °F 29.94 in West 7.0 mph 11.0 mph 92 % 0.00 in 0 W/m2
21:38 48.6 °F 46.3 °F 29.94 in WNW 6.0 mph 10.0 mph 92 % 0.00 in 0 W/m2
21:43 48.6 °F 46.1 °F 29.94 in WNW 5.0 mph 9.0 mph 91 % 0.00 in 0 W/m2
21:48 48.6 °F 46.1 °F 29.94 in West 3.0 mph 6.0 mph 91 % 0.00 in 0 W/m2
21:53 48.4 °F 45.9 °F 29.94 in WNW 3.0 mph 7.0 mph 91 % 0.00 in 0 W/m2
21:58 48.4 °F 45.9 °F 29.94 in Calm   2.0 mph 91 % 0.00 in 0 W/m2
22:03 48.2 °F 45.7 °F 29.94 in Calm   2.0 mph 91 % 0.00 in 0 W/m2
22:08 48.0 °F 45.5 °F 29.94 in Calm   2.0 mph 91 % 0.00 in 0 W/m2
22:13 47.8 °F 45.3 °F 29.94 in WSW 2.0 mph 6.0 mph 91 % 0.00 in 0 W/m2
22:18 47.8 °F 45.3 °F 29.94 in West 2.0 mph 4.0 mph 91 % 0.00 in 0 W/m2
22:23 47.8 °F 45.3 °F 29.94 in West 4.0 mph 7.0 mph 91 % 0.00 in 0 W/m2
22:28 47.8 °F 45.3 °F 29.94 in West 4.0 mph 7.0 mph 91 % 0.00 in 0 W/m2
22:33 47.8 °F 45.3 °F 29.94 in West 6.0 mph 11.0 mph 91 % 0.00 in 0 W/m2
22:38 48.0 °F 45.8 °F 29.94 in West 7.0 mph 11.0 mph 92 % 0.00 in 0 W/m2
22:43 48.4 °F 46.2 °F 29.95 in West 7.0 mph 12.0 mph 92 % 0.00 in 0 W/m2
22:48 48.6 °F 46.1 °F 29.94 in WSW 4.0 mph 7.0 mph 91 % 0.00 in 0 W/m2
22:53 48.7 °F 46.2 °F 29.94 in SSW 5.0 mph 7.0 mph 91 % 0.00 in 0 W/m2
22:58 48.7 °F 46.2 °F 29.94 in SSW 3.0 mph 7.0 mph 91 % 0.00 in 0 W/m2
23:03 48.9 °F 46.4 °F 29.94 in South 1.0 mph 6.0 mph 91 % 0.00 in 0 W/m2
23:08 48.9 °F 46.4 °F 29.94 in South 1.0 mph 2.0 mph 91 % 0.00 in 0 W/m2
23:13 49.1 °F 46.6 °F 29.94 in SW 4.0 mph 8.0 mph 91 % 0.00 in 0 W/m2
23:18 49.3 °F 46.8 °F 29.94 in SSW 5.0 mph 7.0 mph 91 % 0.00 in 0 W/m2
23:23 49.3 °F 46.8 °F 29.94 in SSW 2.0 mph 5.0 mph 91 % 0.00 in 0 W/m2
23:29 49.3 °F 46.8 °F 29.94 in Calm   2.0 mph 91 % 0.00 in 0 W/m2
23:34 48.9 °F 46.4 °F 29.93 in SSW 2.0 mph 5.0 mph 91 % 0.00 in 0 W/m2
23:39 48.9 °F 46.4 °F 29.93 in SSW 3.0 mph 5.0 mph 91 % 0.00 in 0 W/m2
23:44 48.7 °F 46.2 °F 29.93 in SSW 1.0 mph 4.0 mph 91 % 0.00 in 0 W/m2
23:49 48.7 °F 46.2 °F 29.93 in SSW 2.0 mph 5.0 mph 91 % 0.00 in 0 W/m2
23:54 48.9 °F 46.7 °F 29.93 in SW 4.0 mph 7.0 mph 92 % 0.00 in 0 W/m2
23:59 49.1 °F 46.9 °F 29.93 in SW 4.0 mph 6.0 mph 92 % 0.00 in 0 W/m2
Delerius-Weather
Compliments of Weather Underground - 2.25 mb

Data updates at regular intervals.